Roanoke, VA

2:23 AM EDT on June 26, 2017 (GMT -0400)
Roanoke Regional-Woodrum

Weather History for KROA - February, 2015

Change the Weather History Date:

Monday, February 9, 2015

  Actual Average Record
Temperature  
Mean Temperature 54 °F 38 °F  
Max Temperature 65 °F 48 °F 72 °F (2001)
Min Temperature 43 °F 29 °F 8 °F (1933)
Degree Days  
Heating Degree Days 11 27  
Month to date heating degree days 217 245  
Since 1 July heating degree days 2689 2737  
Cooling Degree Days 0 0  
Month to date cooling degree days 0 0  
Year to date cooling degree days 0 0  
Growing Degree Days 5 (Base 50)    
Moisture  
Dew Point 44 °F    
Average Humidity 67    
Maximum Humidity 86    
Minimum Humidity 48    
Precipitation  
Precipitation 0.04 in 0.11 in 1.50 in (1931)
Month to date precipitation 0.20 0.93  
Year to date precipitation 1.51 3.85  
Snow  
Snow 0.00 in - - ()
Month to date snowfall T  
Since 1 July snowfall 0.7  
Snow Depth 0.00 in    
Sea Level Pressure  
Sea Level Pressure 29.79 in    
Wind  
Wind Speed 6 mph (SE)    
Max Wind Speed 16 mph    
Max Gust Speed 19 mph    
Visibility 9 miles    
Events Rain    
T = Trace of Precipitation, MM = Missing Value Source: NWS Daily Summary

Daily Weather History Graph

Daily Weather History Graph

Search for Another Location

Airport or City:

Trip Planner

Search our weather history database for the weather conditions in past years. The results will help you decide how hot, cold, wet, or windy it might be!

Date:

Astronomy

Feb. 09, 2015 Rise Set
Actual Time 7:15 AM EST 5:52 PM EST
Civil Twilight 6:48 AM EST 6:19 PM EST
Nautical Twilight 6:17 AM EST 6:50 PM EST
Astronomical Twilight 5:47 AM EST 7:21 PM EST
Moon 11:18 PM EST (2/9) 10:00 AM EST (2/9)
Length of Visible Light 11h 31m
Length of Day
10h 37m
Waning Gibbous, 73% of the Moon is Illuminated
Feb 9
Waning Gibbous
Feb 11
Last Quarter
Feb 18
New
Feb 25
First Quarter
Mar 5
Full

Hourly Weather History & Observations

Time (EST) Temp. Windchill Dew Point Humidity Pressure Visibility Wind Dir Wind Speed Gust Speed Precip Events Conditions
12:54 AM 57.0 °F - 41.0 °F 55% 29.80 in 10.0 mi WSW 6.9 mph - N/A   Overcast
1:54 AM 57.0 °F - 42.1 °F 57% 29.79 in 10.0 mi WSW 6.9 mph - N/A   Overcast
2:54 AM 57.0 °F - 42.1 °F 57% 29.79 in 10.0 mi SW 4.6 mph - N/A   Overcast
3:54 AM 57.2 °F - 42.8 °F 59% 29.80 in 10.0 mi Calm Calm - N/A   Overcast
4:54 AM 55.9 °F - 42.1 °F 60% 29.78 in 10.0 mi WSW 3.5 mph - N/A   Overcast
5:54 AM 55.0 °F - 43.0 °F 64% 29.79 in 10.0 mi WSW 3.5 mph - 0.00 in   Overcast
6:54 AM 52.0 °F - 44.1 °F 74% 29.81 in 10.0 mi Calm Calm - 0.00 in   Overcast
7:54 AM 51.1 °F - 44.1 °F 77% 29.82 in 10.0 mi North 4.6 mph - N/A   Overcast
8:54 AM 54.0 °F - 48.0 °F 80% 29.82 in 10.0 mi Calm Calm - 0.00 in   Overcast
9:54 AM 55.0 °F - 48.0 °F 77% 29.81 in 10.0 mi ESE 3.5 mph - N/A   Overcast
10:54 AM 60.1 °F - 48.0 °F 64% 29.80 in 10.0 mi Calm Calm - N/A   Overcast
11:54 AM 63.0 °F - 46.0 °F 54% 29.77 in 10.0 mi West 10.4 mph - N/A   Partly Cloudy
12:54 PM 64.0 °F - 44.1 °F 48% 29.74 in 10.0 mi West 12.7 mph 17.3 mph N/A   Overcast
1:54 PM 64.0 °F - 44.1 °F 48% 29.72 in 10.0 mi North 13.8 mph 18.4 mph N/A   Mostly Cloudy
2:54 PM 61.0 °F - 42.1 °F 50% 29.72 in 10.0 mi NNE 8.1 mph - N/A   Overcast
3:54 PM 57.9 °F - 46.9 °F 67% 29.73 in 10.0 mi NE 6.9 mph - 0.01 in   Overcast
4:54 PM 57.9 °F - 46.9 °F 67% 29.73 in 10.0 mi NE 6.9 mph - N/A   Overcast
5:54 PM 57.0 °F - 46.9 °F 69% 29.75 in 10.0 mi East 6.9 mph - N/A   Overcast
6:54 PM 54.0 °F - 44.1 °F 69% 29.77 in 10.0 mi East 5.8 mph - N/A   Overcast
7:54 PM 52.0 °F - 42.1 °F 69% 29.78 in 10.0 mi SSE 5.8 mph - 0.00 in   Overcast
8:41 PM 50.0 °F - 43.0 °F 77% 29.80 in 10.0 mi SE 6.9 mph - N/A   Overcast
8:54 PM 48.9 °F - 43.0 °F 80% 29.81 in 10.0 mi SSE 8.1 mph - N/A   Overcast
9:54 PM 46.9 °F - 42.1 °F 83% 29.82 in 9.0 mi SSE 4.6 mph - N/A   Overcast
10:02 PM 46.9 °F - 42.1 °F 83% 29.82 in 8.0 mi Calm Calm - N/A   Overcast
10:52 PM 46.4 °F - 42.8 °F 87% 29.83 in 4.0 mi Calm Calm - 0.01 in Rain Light Rain
10:54 PM 46.9 °F - 43.0 °F 86% 29.82 in 4.0 mi ENE 4.6 mph - 0.01 in Rain Light Rain
11:54 PM 43.0 °F 39.5 °F 41.0 °F 93% 29.83 in 3.0 mi SE 5.8 mph - 0.02 in   Overcast